Overview Statistics Trail Chart Weather Telemetry Raw packets
 

This is the latest recevied weather packets stored in our database for station/object M0JUI-1. If no packets are shown the sender has not sent any weather packets the latest 10 day(s).

<< 16 17 18 19 20 21 22 >>
Time Temp. Humidity Pressure Rain* Wind** Luminosity Snow
1788523330 17.22° C 1% 1012.5 hPa 0 mm - 623 W/m² -
1788523029 17.22° C 1% 1012.4 hPa 0 mm - 568 W/m² -
1788522730 16.67° C 1% 1012.4 hPa 0 mm - 428 W/m² -
1788522429 16.67° C 1% 1012.3 hPa 0 mm - 330 W/m² -
1788522142 16.67° C 1% 1012.2 hPa 0 mm - 316 W/m² -
1788521829 16.67° C 1% 1012.5 hPa 0 mm - 314 W/m² -
1788521529 16.67° C 1% 1012.3 hPa 0 mm - 261 W/m² -
1788521218 16.67° C 1% 1012.2 hPa 0 mm - 296 W/m² -
1788520917 16.67° C 1% 1012.1 hPa 0 mm - 372 W/m² -
1788520617 16.67° C 1% 1012.2 hPa 0 mm - 439 W/m² -
1788520317 16.67° C 1% 1011.9 hPa 0 mm - 352 W/m² -
1788520018 16.67° C 1% 1012.1 hPa 0 mm - 421 W/m² -
1788519717 16.67° C 1% 1012.1 hPa 0 mm - 359 W/m² -
1788519417 16.11° C 1% 1012 hPa 0 mm - 519 W/m² -
1788519117 15.56° C 1% 1012 hPa 0 mm - 404 W/m² -
1788518817 15.56° C 1% 1011.7 hPa 0 mm - 254 W/m² -
1788518519 15.56° C 1% 1012 hPa 0 mm - 199 W/m² -
1788518217 15.56° C 1% 1011.9 hPa 0 mm - 262 W/m² -
1788517917 15.56° C 1% 1012 hPa 0 mm - 247 W/m² -
1788517617 15.56° C 1% 1011.9 hPa 0 mm - 205 W/m² -
1788517317 15.56° C 1% 1012 hPa 0 mm - 232 W/m² -
1788517017 15.56° C 1% 1012 hPa 0 mm - 262 W/m² -
1788516705 15.56° C 1% 1011.6 hPa 0 mm - 223 W/m² -
1788516405 15° C 1% 1011.6 hPa 0 mm - 203 W/m² -
1788516105 15° C 1% 1011.6 hPa 0 mm - 172 W/m² -

* Rain latest hour (hover to see other rain measurements)
** Current wind speed in m/s (hover to see current wind gust speed)